Location: Arlington Heights
(34.0422°N, 118.3189°W)
Time: 01:48:58
(UTC+00:00)

DELTA 2 DEB (DPAF) - Pass Details

Date: 26 June 2022
Orbit: 635 x 638 km, 98.4° (Epoch: 08 August)

Event Time Altitude Azimuth Distance (km) Brightness Sun altitude
Rises 12:07:34 0° 177° (S) 2,916 7.2 -7.2°
Reaches altitude 10° 12:09:48 10° 182° (S) 2,012 6.3 -6.8°
Maximum altitude 12:14:05 54° 259° (W) 777 4.3 -6.1°
Drops below altitude 10° 12:18:23 10° 337° (NNW) 2,025 6.8 -5.3°
Sets 12:20:39 0° 342° (NNW) 2,938 7.7 -4.9°
